Location: �clusier
(49.9361°N, 2.7869°E)
Time: 22:48:32
(UTC+00:00)

Uosat 12 SS-18 rocket - Pass Details

Date: 16 June 2021
Orbit: 587 x 1397 km, 64.6° (Epoch: 02 August)

Event Time Altitude Azimuth Distance (km) Brightness Sun altitude
Exits shadow 23:10:47 15° 222° (SW) 1,685 5.9 -16.2°
Maximum altitude 23:14:27 84° 310° (NW) 684 4.2 -16.3°
Drops below altitude 10° 23:19:38 10° 40° (NE) 2,321 7.6 -16.4°
Sets 23:22:18 0° 41° (NE) 3,377 8.5 -16.4°
